Terminal Aerodrome Forecast
Issued by NWS

Home | Current Version | Previous Version | Text Only | Print | Product List | Glossary On
Versions: 1 2 3 4 5 6 7 8 9 10 11 12 13 14 15 16 17 18 19 20 21 22 23 24 25 26 27 28 29 30
000
FTUS45 KSLC 241120
TAFEVW
TAF
KEVW 241120Z 2412/2512 24010KT P6SM SKC
     FM241600 23020G30KT P6SM SCT120
     FM250300 29015G25KT P6SM -SHRA SCT040 BKN080
     FM250600 25008KT P6SM VCSH SCT060 BKN100=

USA.gov is the U.S. government's official web portal to all federal, state and local government web resources and services.